Time,TemperatureF,DewpointF,PressureIn,WindDirection,WindDirectionDegrees,WindSpeedMPH,WindSpeedGustMPH,Humidity,HourlyPrecipIn,Conditions,Clouds,dailyrainin,SoftwareType,DateUTC
2013-12-14 00:53:00,44.3,43.0,30.38,SE,124,0.0,1.0,95,0.00,,,0.00,weatherlink.com 1.10,2013-12-13 23:53:00,
2013-12-14 01:08:00,44.4,43.0,30.38,ESE,123,0.0,0.0,95,0.00,,,0.00,weatherlink.com 1.10,2013-12-14 00:08:00,
2013-12-14 01:23:00,43.2,42.0,30.38,SE,127,0.0,0.0,94,0.00,,,0.00,weatherlink.com 1.10,2013-12-14 00:23:00,
2013-12-14 01:38:00,-999.0,-99.9,30.38,North,-999,-999.0,-999.0,-999,0.00,,,0.00,weatherlink.com 1.10,2013-12-14 00:38:00,
2013-12-14 01:53:00,-999.0,-99.9,30.38,North,-999,-999.0,-999.0,-999,0.00,,,0.00,weatherlink.com 1.10,2013-12-14 00:53:00,
2013-12-14 02:08:00,-999.0,-99.9,30.38,North,-999,-999.0,-999.0,-999,0.00,,,0.00,weatherlink.com 1.10,2013-12-14 01:08:00,
2013-12-14 02:53:00,-999.0,-99.9,30.39,North,-999,-999.0,-999.0,-999,0.00,,,0.00,weatherlink.com 1.10,2013-12-14 01:53:00,
2013-12-14 03:08:00,-999.0,-99.9,30.39,North,-999,-999.0,-999.0,-999,0.00,,,0.00,weatherlink.com 1.10,2013-12-14 02:08:00,
2013-12-14 03:53:00,-999.0,-99.9,30.39,North,-999,-999.0,-999.0,-999,0.00,,,0.00,weatherlink.com 1.10,2013-12-14 02:53:00,
2013-12-14 04:08:00,-999.0,-99.9,30.39,North,-999,-999.0,-999.0,-999,0.00,,,0.00,weatherlink.com 1.10,2013-12-14 03:08:00,
2013-12-14 04:24:00,-999.0,-99.9,30.39,North,-999,-999.0,-999.0,-999,0.00,,,0.00,weatherlink.com 1.10,2013-12-14 03:24:00,
2013-12-14 04:39:00,-999.0,-99.9,30.40,North,-999,-999.0,-999.0,-999,0.00,,,0.00,weatherlink.com 1.10,2013-12-14 03:39:00,
2013-12-14 05:09:00,-999.0,-99.9,30.39,North,-999,-999.0,-999.0,-999,0.00,,,0.00,weatherlink.com 1.10,2013-12-14 04:09:00,
2013-12-14 05:24:00,-999.0,-99.9,30.40,North,-999,-999.0,-999.0,-999,0.00,,,0.00,weatherlink.com 1.10,2013-12-14 04:24:00,
2013-12-14 05:39:00,-999.0,-99.9,30.40,North,-999,-999.0,-999.0,-999,0.00,,,0.00,weatherlink.com 1.10,2013-12-14 04:39:00,
2013-12-14 05:54:00,-999.0,-99.9,30.40,North,-999,-999.0,-999.0,-999,0.00,,,0.00,weatherlink.com 1.10,2013-12-14 04:54:00,
2013-12-14 06:09:00,-999.0,-99.9,30.41,North,-999,-999.0,-999.0,-999,0.00,,,0.00,weatherlink.com 1.10,2013-12-14 05:09:00,
2013-12-14 06:24:00,-999.0,-99.9,30.41,North,-999,-999.0,-999.0,-999,0.00,,,0.00,weatherlink.com 1.10,2013-12-14 05:24:00,
2013-12-14 06:39:00,-999.0,-99.9,30.42,North,-999,-999.0,-999.0,-999,0.00,,,0.00,weatherlink.com 1.10,2013-12-14 05:39:00,
2013-12-14 06:54:00,-999.0,-99.9,30.42,North,-999,-999.0,-999.0,-999,0.00,,,0.00,weatherlink.com 1.10,2013-12-14 05:54:00,
2013-12-14 07:09:00,-999.0,-99.9,30.43,North,-999,-999.0,-999.0,-999,0.00,,,0.00,weatherlink.com 1.10,2013-12-14 06:09:00,
2013-12-14 07:24:00,-999.0,-99.9,30.43,North,-999,-999.0,-999.0,-999,0.00,,,0.00,weatherlink.com 1.10,2013-12-14 06:24:00,
2013-12-14 07:40:00,-999.0,-99.9,30.44,North,-999,-999.0,-999.0,-999,0.00,,,0.00,weatherlink.com 1.10,2013-12-14 06:40:00,
2013-12-14 07:55:00,-999.0,-99.9,30.44,North,-999,-999.0,-999.0,-999,0.00,,,0.00,weatherlink.com 1.10,2013-12-14 06:55:00,
2013-12-14 08:10:00,-999.0,-99.9,30.45,North,-999,-999.0,-999.0,-999,0.00,,,0.00,weatherlink.com 1.10,2013-12-14 07:10:00,
2013-12-14 08:25:00,41.9,41.0,30.45,NE,56,0.0,0.0,97,0.00,,,0.00,weatherlink.com 1.10,2013-12-14 07:25:00,
2013-12-14 08:55:00,42.8,42.0,30.46,NNE,27,0.0,0.0,97,0.00,,,0.00,weatherlink.com 1.10,2013-12-14 07:55:00,
2013-12-14 09:10:00,43.6,43.0,30.47,NE,53,0.0,0.0,97,0.00,,,0.00,weatherlink.com 1.10,2013-12-14 08:10:00,
2013-12-14 09:25:00,44.7,44.0,30.47,ENE,61,0.0,0.0,97,0.00,,,0.00,weatherlink.com 1.10,2013-12-14 08:25:00,
2013-12-14 09:40:00,45.5,45.0,30.48,NE,49,0.0,0.0,97,0.00,,,0.00,weatherlink.com 1.10,2013-12-14 08:40:00,
2013-12-14 09:55:00,46.6,46.0,30.48,NE,47,0.0,0.0,97,0.00,,,0.00,weatherlink.com 1.10,2013-12-14 08:55:00,
2013-12-14 10:10:00,47.3,47.0,30.49,NNE,19,0.0,0.0,97,0.00,,,0.00,weatherlink.com 1.10,2013-12-14 09:10:00,
2013-12-14 10:25:00,48.2,47.0,30.50,NNE,26,0.0,0.0,97,0.00,,,0.00,weatherlink.com 1.10,2013-12-14 09:25:00,
2013-12-14 10:40:00,49.2,48.0,30.50,NNE,18,0.0,0.0,97,0.00,,,0.00,weatherlink.com 1.10,2013-12-14 09:40:00,
2013-12-14 11:25:00,53.7,52.0,30.50,ESE,120,4.0,5.0,93,0.00,,,0.00,weatherlink.com 1.10,2013-12-14 10:25:00,
2013-12-14 11:40:00,55.1,53.0,30.49,SSE,153,4.0,6.0,91,0.00,,,0.00,weatherlink.com 1.10,2013-12-14 10:40:00,
2013-12-14 11:55:00,56.4,52.0,30.49,SSE,162,6.0,13.0,85,0.00,,,0.00,weatherlink.com 1.10,2013-12-14 10:55:00,
2013-12-14 12:11:00,57.2,52.0,30.49,SSE,158,7.0,13.0,82,0.00,,,0.00,weatherlink.com 1.10,2013-12-14 11:11:00,
2013-12-14 12:26:00,57.7,52.0,30.49,South,176,8.0,11.0,82,0.00,,,0.00,weatherlink.com 1.10,2013-12-14 11:26:00,
2013-12-14 12:41:00,58.0,52.0,30.48,SSW,198,7.0,13.0,79,0.00,,,0.00,weatherlink.com 1.10,2013-12-14 11:41:00,
2013-12-14 12:56:00,58.3,51.0,30.48,SE,136,7.0,13.0,77,0.00,,,0.00,weatherlink.com 1.10,2013-12-14 11:56:00,
2013-12-14 13:11:00,58.8,52.0,30.48,SSE,157,6.0,11.0,77,0.00,,,0.00,weatherlink.com 1.10,2013-12-14 12:11:00,
2013-12-14 13:26:00,58.4,51.0,30.47,South,190,8.0,13.0,75,0.00,,,0.00,weatherlink.com 1.10,2013-12-14 12:26:00,
2013-12-14 13:41:00,58.1,51.0,30.47,SSW,204,8.0,12.0,76,0.00,,,0.00,weatherlink.com 1.10,2013-12-14 12:41:00,
2013-12-14 13:56:00,58.2,51.0,30.47,SSW,198,8.0,13.0,76,0.00,,,0.00,weatherlink.com 1.10,2013-12-14 12:56:00,
2013-12-14 14:11:00,58.9,51.0,30.47,South,190,15.0,16.0,76,0.00,,,0.00,weatherlink.com 1.10,2013-12-14 13:11:00,
2013-12-14 14:56:00,59.0,50.0,30.47,SSW,211,10.0,13.0,72,0.00,,,0.00,weatherlink.com 1.10,2013-12-14 13:56:00,
2013-12-14 15:26:00,58.9,48.0,30.48,SSW,208,8.0,15.0,67,0.00,,,0.00,weatherlink.com 1.10,2013-12-14 14:26:00,
2013-12-14 15:41:00,59.0,49.0,30.48,SW,224,9.0,14.0,69,0.00,,,0.00,weatherlink.com 1.10,2013-12-14 14:41:00,
2013-12-14 15:56:00,58.0,49.0,30.48,SSW,208,6.0,11.0,73,0.00,,,0.00,weatherlink.com 1.10,2013-12-14 14:56:00,
2013-12-14 16:11:00,57.5,50.0,30.49,SSW,194,7.0,11.0,76,0.00,,,0.00,weatherlink.com 1.10,2013-12-14 15:11:00,
2013-12-14 16:26:00,57.1,50.0,30.49,SSW,194,5.0,7.0,78,0.00,,,0.00,weatherlink.com 1.10,2013-12-14 15:26:00,
2013-12-14 16:56:00,56.8,50.0,30.49,SW,225,2.0,3.0,79,0.00,,,0.00,weatherlink.com 1.10,2013-12-14 15:56:00,
2013-12-14 17:26:00,56.5,50.0,30.50,SSW,207,3.0,5.0,80,0.00,,,0.00,weatherlink.com 1.10,2013-12-14 16:26:00,
2013-12-14 17:41:00,56.3,51.0,30.50,SE,140,2.0,5.0,81,0.00,,,0.00,weatherlink.com 1.10,2013-12-14 16:41:00,
2013-12-14 17:56:00,56.0,51.0,30.51,SSE,153,1.0,4.0,82,0.00,,,0.00,weatherlink.com 1.10,2013-12-14 16:56:00,
2013-12-14 18:11:00,55.5,50.0,30.51,SE,131,0.0,2.0,82,0.00,,,0.00,weatherlink.com 1.10,2013-12-14 17:11:00,
2013-12-14 18:26:00,54.9,50.0,30.52,SE,138,1.0,1.0,84,0.00,,,0.00,weatherlink.com 1.10,2013-12-14 17:26:00,
2013-12-14 18:41:00,54.6,50.0,30.52,SSE,165,0.0,1.0,85,0.00,,,0.00,weatherlink.com 1.10,2013-12-14 17:41:00,
2013-12-14 18:56:00,53.9,50.0,30.52,ESE,102,0.0,1.0,87,0.00,,,0.00,weatherlink.com 1.10,2013-12-14 17:56:00,
2013-12-14 19:11:00,53.2,50.0,30.52,NNE,15,0.0,2.0,87,0.00,,,0.00,weatherlink.com 1.10,2013-12-14 18:11:00,
2013-12-14 19:41:00,52.6,50.0,30.53,ESE,106,0.0,1.0,89,0.00,,,0.00,weatherlink.com 1.10,2013-12-14 18:41:00,
2013-12-14 19:56:00,51.5,48.0,30.53,ESE,106,0.0,0.0,89,0.00,,,0.00,weatherlink.com 1.10,2013-12-14 18:56:00,
2013-12-14 20:11:00,50.7,48.0,30.53,ESE,108,0.0,0.0,90,0.00,,,0.00,weatherlink.com 1.10,2013-12-14 19:11:00,
2013-12-14 20:26:00,50.4,48.0,30.53,ESE,106,0.0,0.0,91,0.00,,,0.00,weatherlink.com 1.10,2013-12-14 19:26:00,
2013-12-14 20:41:00,49.7,48.0,30.53,ESE,106,0.0,0.0,92,0.00,,,0.00,weatherlink.com 1.10,2013-12-14 19:41:00,
2013-12-14 21:11:00,49.4,48.0,30.54,ESE,105,0.0,0.0,93,0.00,,,0.00,weatherlink.com 1.10,2013-12-14 20:11:00,
2013-12-14 21:26:00,49.0,47.0,30.54,ESE,106,0.0,0.0,93,0.00,,,0.00,weatherlink.com 1.10,2013-12-14 20:26:00,
2013-12-14 21:56:00,48.0,46.0,30.54,ESE,108,0.0,0.0,94,0.00,,,0.00,weatherlink.com 1.10,2013-12-14 20:56:00,
2013-12-14 22:42:00,47.1,46.0,30.54,SSE,153,0.0,0.0,94,0.00,,,0.00,weatherlink.com 1.10,2013-12-14 21:42:00,
2013-12-14 23:11:00,45.7,45.0,30.55,SSE,158,0.0,0.0,96,0.00,,,0.00,weatherlink.com 1.10,2013-12-14 22:11:00,
2013-12-14 23:26:00,45.4,44.0,30.55,SSE,158,0.0,0.0,96,0.00,,,0.00,weatherlink.com 1.10,2013-12-14 22:26:00,
2013-12-14 23:41:00,45.6,45.0,30.55,SSE,160,0.0,0.0,96,0.00,,,0.00,weatherlink.com 1.10,2013-12-14 22:41:00,
2013-12-14 23:56:00,46.0,45.0,30.55,SSE,160,0.0,0.0,96,0.00,,,0.00,weatherlink.com 1.10,2013-12-14 22:56:00,